GW4057 Weather Reports


time (UTC)temp
C
wind
direction
speed
KPH
gust
KPH
rain 1hr
cm
rain 24hr
cm
rain mn
cm
humidity
%
barometer
mb
20260503233704 14 256 11.3 24.1 0.00 0.00 0.00 46 1012.2
20260503233204 14 218 12.9 22.5 0.00 0.00 0.00 46 1012.2
20260503231704 14 243 11.3 19.3 0.00 0.00 0.00 46 1012.2
20260503231204 14 218 11.3 22.5 0.00 0.00 0.00 46 1012.5
20260503230704 14 254 14.5 22.5 0.00 0.00 0.00 46 1012.5
20260503230208 14 281 11.3 22.5 0.00 0.00 0.00 45 1012.2
20260503225704 14 230 9.7 24.1 0.00 0.00 0.00 46 1012.2
20260503225204 14 202 16.1 24.1 0.00 0.00 0.00 45 1012.2
20260503224704 14 248 9.7 24.1 0.00 0.00 0.00 45 1012.5
20260503224204 15 215 12.9 19.3 0.00 0.00 0.00 45 1012.5
20260503223703 15 191 9.7 20.9 0.00 0.00 0.00 45 1012.5
20260503223204 15 258 11.3 20.9 0.00 0.00 0.00 44 1012.5
20260503222704 15 242 8.0 20.9 0.00 0.00 0.00 45 1012.5
20260503222204 14 226 14.5 20.9 0.00 0.00 0.00 46 1012.5
20260503221704 14 256 11.3 20.9 0.00 0.00 0.00 45 1012.5
20260503221204 15 237 11.3 20.9 0.00 0.00 0.00 44 1012.5
20260503220704 15 235 16.1 29.0 0.00 0.00 0.00 44 1012.5
20260503220204 15 184 14.5 29.0 0.00 0.00 0.00 45 1012.5
20260503215204 15 257 16.1 24.1 0.00 0.00 0.00 44 1012.5
20260503214704 15 248 12.9 24.1 0.00 0.00 0.00 44 1012.5
20260503214204 15 252 20.9 24.1 0.00 0.00 0.00 43 1012.5
20260503213704 15 224 9.7 19.3 0.00 0.00 0.00 44 1012.5
20260503213204 15 229 9.7 22.5 0.00 0.00 0.00 44 1012.5
20260503212704 15 276 11.3 22.5 0.00 0.00 0.00 44 1012.5
20260503212204 15 258 14.5 27.4 0.00 0.00 0.00 44 1012.5
20260503211704 15 261 14.5 27.4 0.00 0.00 0.00 43 1012.5
20260503211204 15 254 14.5 27.4 0.00 0.00 0.00 42 1012.5
20260503210704 15 214 9.7 27.4 0.00 0.00 0.00 43 1012.5
20260503210204 15 226 14.5 20.9 0.00 0.00 0.00 42 1012.5
20260503205703 15 226 16.1 22.5 0.00 0.00 0.00 40 1012.5
20260503205204 15 277 9.7 22.5 0.00 0.00 0.00 43 1012.5
20260503204204 16 246 8.0 19.3 0.00 0.00 0.00 42 1012.5
20260503203703 16 248 14.5 20.9 0.00 0.00 0.00 44 1012.5
20260503203204 15 250 11.3 24.1 0.00 0.00 0.00 45 1012.9
20260503202204 16 210 16.1 25.7 0.00 0.00 0.00 42 1012.9
20260503201704 16 248 17.7 25.7 0.00 0.00 0.00 43 1012.9
20260503201204 16 278 14.5 24.1 0.00 0.00 0.00 42 1012.9
20260503200704 15 235 11.3 22.5 0.00 0.00 0.00 43 1013.2
20260503200204 15 296 12.9 32.2 0.00 0.00 0.00 43 1013.2
20260503195704 15 217 4.8 32.2 0.00 0.00 0.00 45 1013.2
20260503195204 15 277 11.3 32.2 0.00 0.00 0.00 43 1013.2
20260503194704 15 254 14.5 22.5 0.00 0.00 0.00 45 1013.2
20260503194203 15 193 17.7 22.5 0.00 0.00 0.00 42 1013.5
20260503193704 15 269 14.5 22.5 0.00 0.00 0.00 43 1013.5
20260503193203 15 262 11.3 22.5 0.00 0.00 0.00 43 1013.5
20260503192704 16 228 16.1 22.5 0.00 0.00 0.00 41 1013.5
20260503192203 15 295 14.5 24.1 0.00 0.00 0.00 42 1013.5
20260503191704 16 257 16.1 24.1 0.00 0.00 0.00 39 1013.9
20260503191204 15 273 11.3 24.1 0.00 0.00 0.00 42 1013.9
20260503190704 15 224 17.7 29.0 0.00 0.00 0.00 41 1013.9
20260503190204 16 233 12.9 29.0 0.00 0.00 0.00 41 1013.9
20260503185704 16 262 19.3 29.0 0.00 0.00 0.00 40 1013.9
20260503185204 16 255 14.5 24.1 0.00 0.00 0.00 42 1013.9
20260503184704 16 269 17.7 27.4 0.00 0.00 0.00 41 1014.2
20260503184204 15 277 8.0 27.4 0.00 0.00 0.00 42 1014.2
20260503183704 16 237 16.1 27.4 0.00 0.00 0.00 43 1014.2
20260503182204 15 284 12.9 22.5 0.00 0.00 0.00 42 1014.2
20260503180704 16 232 16.1 25.7 0.00 0.00 0.00 43 1014.6
20260503180204 15 258 14.5 25.7 0.00 0.00 0.00 45 1014.6
20260503175704 14 281 14.5 24.1 0.00 0.00 0.00 45 1014.6
20260503175204 15 283 11.3 25.7 0.00 0.00 0.00 44 1014.6
20260503174704 14 256 8.0 25.7 0.00 0.00 0.00 47 1014.6
20260503174204 15 235 22.5 25.7 0.00 0.00 0.00 46 1014.9
20260503173704 15 263 9.7 22.5 0.00 0.00 0.00 45 1014.9
20260503173203 15 253 9.7 22.5 0.00 0.00 0.00 45 1014.9
20260503172704 15 253 16.1 22.5 0.00 0.00 0.00 46 1014.9
20260503172204 15 294 14.5 22.5 0.00 0.00 0.00 45 1014.9
20260503171204 15 230 9.7 24.1 0.00 0.00 0.00 45 1015.2
20260503170704 15 316 11.3 25.7 0.00 0.00 0.00 46 1014.9
20260503170204 15 299 9.7 25.7 0.00 0.00 0.00 47 1015.2
20260503160204 13 255 12.9 22.5 0.00 0.00 0.00 45 1015.9
20260503150704 11 254 9.7 24.1 0.00 0.00 0.00 51 1016.3
20260503150204 11 270 16.1 24.1 0.00 0.00 0.00 47 1015.9
20260503140204 9 223 11.3 19.3 0.00 0.03 0.00 52 1016.6
20260503131204 7 248 9.7 16.1 0.00 0.10 0.00 57 1016.6
20260503130705 7 249 9.7 19.3 0.00 0.10 0.00 57 1016.9
20260503120205 3 141 1.6 8.0 0.00 0.13 0.00 81 1016.9
20260503110704 0 103 0.0 0.0 0.00 0.13 0.00 97 1016.3
20260503110204 0 114 0.0 0.0 0.00 0.13 0.00 96 1016.3
20260503090204 0 115 0.0 0.0 0.00 0.15 0.00 95 1016.3
20260503081204 0 126 0.0 0.0 0.00 0.15 0.00 95 1016.3
20260503080704 0 129 0.0 0.0 0.00 0.15 0.00 94 1016.3
20260503080204 0 127 0.0 0.0 0.00 0.18 0.00 94 1016.3
20260503072704 0 144 0.0 0.0 0.00 0.18 0.00 93 1016.3
20260503072205 0 163 0.0 0.0 0.00 0.20 0.00 93 1016.3
20260503071204 0 136 0.0 4.8 0.00 0.20 0.00 93 1016.3
20260503070704 0 106 0.0 4.8 0.00 0.20 0.00 93 1016.3
20260503070204 0 120 1.6 4.8 0.00 0.23 0.00 93 1016.3
20260503060204 1 125 0.0 0.0 0.00 0.23 0.00 88 1016.6
20260503054704 1 112 0.0 0.0 0.00 0.25 0.00 86 1016.6
20260503054205 1 106 0.0 0.0 0.00 0.28 0.00 85 1016.6
20260503053705 1 106 0.0 0.0 0.00 0.28 0.00 85 1016.6
20260503052705 2 114 0.0 0.0 0.00 0.28 0.00 83 1016.6
20260503052205 2 112 0.0 0.0 0.00 0.28 0.00 82 1016.6
20260503051204 2 118 0.0 0.0 0.00 0.28 0.00 80 1016.6
20260503050705 2 118 0.0 0.0 0.00 0.28 0.00 80 1016.6
20260503050204 2 115 0.0 0.0 0.00 0.28 0.00 79 1016.6
20260503045704 2 143 0.0 1.6 0.00 0.28 0.00 79 1016.6
20260503045205 2 143 0.0 1.6 0.00 0.28 0.00 79 1016.6
20260503044705 3 125 0.0 1.6 0.00 0.28 0.00 78 1016.6
20260503044205 3 161 0.0 0.0 0.00 0.28 0.00 77 1016.6
20260503043705 3 162 0.0 0.0 0.00 0.28 0.00 77 1016.6
20260503043205 3 148 0.0 0.0 0.00 0.28 0.00 76 1016.6
20260503042705 3 144 0.0 0.0 0.00 0.28 0.00 76 1016.6
20260503042205 3 133 0.0 0.0 0.00 0.28 0.00 75 1016.6
20260503040704 4 155 0.0 3.2 0.00 0.28 0.00 74 1016.9
20260503040205 4 166 0.0 3.2 0.00 0.28 0.00 74 1016.9
20260503035704 4 179 0.0 3.2 0.00 0.28 0.23 74 1016.9
20260503035205 4 161 1.6 3.2 0.00 0.28 0.23 74 1016.9
20260503034204 4 142 0.0 4.8 0.00 0.28 0.23 74 1016.9
20260503033705 4 171 3.2 4.8 0.00 0.28 0.23 74 1016.9
20260503033204 4 141 0.0 3.2 0.00 0.28 0.23 74 1016.9
20260503032704 4 148 0.0 3.2 0.00 0.28 0.23 74 1016.9
20260503032204 4 197 1.6 3.2 0.00 0.28 0.23 74 1016.9
20260503031705 4 143 0.0 0.0 0.00 0.28 0.23 74 1016.9
20260503031205 4 149 0.0 0.0 0.00 0.28 0.23 73 1016.9
20260503030704 4 148 0.0 0.0 0.00 0.28 0.23 73 1016.9
20260503025204 5 150 0.0 0.0 0.00 0.28 0.23 74 1017.3
20260503024204 5 149 0.0 0.0 0.00 0.28 0.23 74 1017.3
20260503023705 5 149 0.0 0.0 0.00 0.28 0.23 74 1017.3
20260503023205 5 152 0.0 0.0 0.00 0.28 0.23 74 1017.3
20260503022705 5 147 0.0 0.0 0.00 0.28 0.23 73 1017.3
20260503021705 5 142 0.0 0.0 0.00 0.28 0.23 72 1017.3
20260503021204 5 130 0.0 0.0 0.00 0.28 0.23 72 1017.3
20260503020704 5 146 0.0 0.0 0.00 0.28 0.23 72 1017.3
20260503020204 5 142 0.0 0.0 0.00 0.28 0.23 72 1017.3
20260503015704 5 127 0.0 0.0 0.00 0.28 0.23 72 1017.3
20260503015204 5 128 0.0 0.0 0.00 0.28 0.23 72 1017.3
20260503014705 5 114 0.0 0.0 0.00 0.28 0.23 72 1017.3
20260503014205 5 109 0.0 0.0 0.00 0.28 0.23 70 1017.3
20260503013704 5 127 0.0 0.0 0.00 0.28 0.23 70 1017.3
20260503013204 5 144 0.0 0.0 0.00 0.28 0.23 70 1017.3
20260503012704 5 205 0.0 0.0 0.00 0.28 0.23 69 1017.3
20260503012204 5 143 0.0 0.0 0.00 0.28 0.23 69 1017.3
20260503011705 5 73 0.0 0.0 0.00 0.28 0.23 69 1017.3
20260503011204 5 155 0.0 0.0 0.00 0.28 0.23 69 1017.3
20260503010705 5 142 0.0 0.0 0.00 0.28 0.23 69 1017.3
20260503010205 5 144 0.0 0.0 0.00 0.28 0.23 68 1016.9
20260503005204 5 144 0.0 0.0 0.00 0.28 0.23 67 1016.9
20260503004705 5 1 0.0 0.0 0.00 0.28 0.23 67 1016.9
20260503004204 5 148 0.0 0.0 0.00 0.28 0.23 67 1016.9
20260503003704 5 127 0.0 3.2 0.00 0.28 0.23 67 1016.9
20260503003205 5 4 0.0 3.2 0.00 0.28 0.23 66 1016.9
20260503002704 5 46 1.6 3.2 0.00 0.28 0.23 66 1016.9
20260503002204 5 134 0.0 4.8 0.00 0.28 0.23 65 1016.9
20260503001204 5 340 1.6 4.8 0.00 0.28 0.23 66 1016.9
20260503000704 5 219 0.0 4.8 0.00 0.28 0.23 64 1016.9
20260503000204 5 334 3.2 4.8 0.00 0.28 0.23 64 1016.9
20260502235704 5 7 0.0 4.8 0.00 0.28 0.23 64 1016.9
20260502235204 5 2 0.0 4.8 0.00 0.28 0.23 65 1016.9
20260502234704 5 147 0.0 8.0 0.00 0.28 0.23 65 1016.9
20260502234204 5 318 4.8 8.0 0.00 0.28 0.23 64 1016.9